Showing default

YAOGAN-30 W, 46809

Orbit data source: Space-Track

YAOGAN-30 W, 46809 is a payload satellite owned by PLA SSF (CN) in LEO that was launched on Mon, 26 Oct 2020 UTC via a CHANG ZHENG 2C launch vehicle from the Xichang Space Center, China (XSC). Payload-class satellites include a variety of spacecraft equipped with specific instruments for various scientific and technological missions. These include communications satellites like Starlink; space stations such as the ISS; scientific satellites like the Hubble; Earth observation satellites from companies like Planet Labs, Umbra, and HawkEye 360; GPS; miniature CubeSats for education and research; and military/defense satellites.

Loading next visibility...
Identifier
46809, 2020-076C
Orbit
LEO
Country
Flag of CNCN / PRC
Related business
Manufacturer
SECM
Mission
Operational Defense Sigint
Bus & Motor
Unknown
Mass
~500 kg wet, ~500 kg dry
Launch date (UTC)
2020-10-26 (5 years ago)
Launch vehicle
CHANG ZHENG 2C
Launch site
Xichang Space Center, China (XSC)
Object type
Payload
Rocket body
Debris
Shape & HBR
Box + 2 Pan, Unknown HBR
Radar Cross Section
0.446 m², Large (>1 m²)

Expand to show TLE details & history
Last TLE update: 9 hours ago

TLE from 9 hours ago
0 YAOGAN-30 W
1 46809U 20076C   25259.57473895  .00003117  00000-0  24368-3 0  9991
2 46809  34.9967 316.2206 0006636 201.5259 158.5170 15.00636946266980
Epoch: 2025-09-16T13:47Z
TLE epoch observation values (Epoch: 2025-09-16T13:47:37.445Z)
Latitude
-0.00002°
Longitude
113.55147°
Altitude
568.135 km
Speed
7.577 km/s
True Right ascension
21h 04m 52s
True Declination
0° 00' 00"
Sunlit
Object was in full shadow at epoch
Visualization orbit readout
Latitude
Unknown
Longitude
Unknown
Altitude
Unknown
Speed
Unknown
Apparent Right ascension
Unknown
Apparent Declination
Unknown
Sunlit
N/A
Visualization observer readout
Local Sidereal Time
15:55:12
Azimuth
Unknown
Elevation
Unknown
Doppler factor
Unknown
Orbital elements
Apogee altitude
572.759 km
Perigee altitude
563.54 km
Semi-major axis
6,946.287 km
Eccentricity
0.00066
Inclination
34.9967°
RAAN
316.2206°
Arg. of periapsis
201.5259°
True anomaly
158.54483°
Mean anomaly
158.517°
Eccentric anomaly
158.53092°
Mean motion
3.74899 °/min
Orbital period
96.03 mins
BSTAR
0.00024368
Loading maneuver chart data...
Computing Atmospheric mass density...
Loading historical data...
Loading historical data...
Loading historical data...
Loading historical data...
Loading historical data...
Loading historical data...
Loading historical data...
Other satellites on launch #76 in the year 2020 (2020-10-26 UTC)

Documentation

Showing up to 5 results
|